Time,TemperatureF,DewpointF,PressureIn,WindDirection,WindDirectionDegrees,WindSpeedMPH,WindSpeedGustMPH,Humidity,HourlyPrecipIn,Conditions,Clouds,dailyrainin,SoftwareType,DateUTC
2013-10-21 00:04:00,40.2,38.0,30.11,SW,220,0.0,-999.0,93,-99.99,,,0.00,weatherlink.com 1.10,2013-10-21 04:04:00,
2013-10-21 00:13:00,40.4,39.0,30.10,SW,220,0.0,-999.0,93,-99.99,,,0.00,weatherlink.com 1.10,2013-10-21 04:13:00,
2013-10-21 00:28:00,40.1,38.0,30.10,SW,220,0.0,-999.0,93,-99.99,,,0.00,weatherlink.com 1.10,2013-10-21 04:28:00,
2013-10-21 00:43:00,40.0,38.0,30.09,SW,220,0.0,-999.0,93,-99.99,,,0.00,weatherlink.com 1.10,2013-10-21 04:43:00,
2013-10-21 01:03:00,39.9,38.0,30.09,SW,220,0.0,-999.0,93,-99.99,,,0.00,weatherlink.com 1.10,2013-10-21 05:03:00,
2013-10-21 01:13:00,39.5,38.0,30.09,SW,220,0.0,-999.0,93,-99.99,,,0.00,weatherlink.com 1.10,2013-10-21 05:13:00,
2013-10-21 01:28:00,38.8,37.0,30.09,SW,220,0.0,-999.0,93,-99.99,,,0.00,weatherlink.com 1.10,2013-10-21 05:28:00,
2013-10-21 01:43:00,38.4,37.0,30.09,SW,220,0.0,-999.0,93,-99.99,,,0.00,weatherlink.com 1.10,2013-10-21 05:43:00,
2013-10-21 02:03:00,38.4,37.0,30.09,SW,220,0.0,-999.0,93,-99.99,,,0.00,weatherlink.com 1.10,2013-10-21 06:03:00,
2013-10-21 02:13:00,38.0,36.0,30.09,SW,220,0.0,-999.0,93,-99.99,,,0.00,weatherlink.com 1.10,2013-10-21 06:13:00,
2013-10-21 02:28:00,38.0,36.0,30.09,SW,220,0.0,-999.0,93,-99.99,,,0.00,weatherlink.com 1.10,2013-10-21 06:28:00,
2013-10-21 02:43:00,38.0,36.0,30.10,SW,220,0.0,-999.0,93,-99.99,,,0.00,weatherlink.com 1.10,2013-10-21 06:43:00,
2013-10-21 03:03:00,37.8,36.0,30.10,SW,220,0.0,-999.0,93,-99.99,,,0.00,weatherlink.com 1.10,2013-10-21 07:03:00,
2013-10-21 03:12:00,37.7,36.0,30.09,SW,220,0.0,-999.0,94,-99.99,,,0.00,weatherlink.com 1.10,2013-10-21 07:12:00,
2013-10-21 03:27:00,38.1,37.0,30.09,SW,220,0.0,-999.0,94,-99.99,,,0.00,weatherlink.com 1.10,2013-10-21 07:27:00,
2013-10-21 03:43:00,38.0,37.0,30.09,SW,220,0.0,-999.0,94,-99.99,,,0.00,weatherlink.com 1.10,2013-10-21 07:43:00,
2013-10-21 04:03:00,37.9,36.0,30.09,SW,220,0.0,-999.0,94,-99.99,,,0.00,weatherlink.com 1.10,2013-10-21 08:03:00,
2013-10-21 04:13:00,37.8,36.0,30.09,SW,220,0.0,-999.0,94,-99.99,,,0.00,weatherlink.com 1.10,2013-10-21 08:13:00,
2013-10-21 04:28:00,37.4,36.0,30.09,SW,220,0.0,-999.0,94,-99.99,,,0.00,weatherlink.com 1.10,2013-10-21 08:28:00,
2013-10-21 04:43:00,37.0,35.0,30.09,SW,220,0.0,-999.0,93,-99.99,,,0.00,weatherlink.com 1.10,2013-10-21 08:43:00,
2013-10-21 05:03:00,36.7,35.0,30.09,North,-999,-999.0,-999.0,93,-99.99,,,0.00,weatherlink.com 1.10,2013-10-21 09:03:00,
2013-10-21 05:13:00,36.5,35.0,30.10,SW,220,0.0,-999.0,94,-99.99,,,0.00,weatherlink.com 1.10,2013-10-21 09:13:00,
2013-10-21 05:28:00,36.4,35.0,30.10,SW,220,0.0,-999.0,94,-99.99,,,0.00,weatherlink.com 1.10,2013-10-21 09:28:00,
2013-10-21 05:43:00,36.0,35.0,30.10,SW,220,0.0,-999.0,94,-99.99,,,0.00,weatherlink.com 1.10,2013-10-21 09:43:00,
2013-10-21 06:03:00,35.9,34.0,30.11,SW,220,0.0,-999.0,94,-99.99,,,0.00,weatherlink.com 1.10,2013-10-21 10:03:00,
2013-10-21 06:13:00,36.1,35.0,30.11,SW,220,0.0,-999.0,94,-99.99,,,0.00,weatherlink.com 1.10,2013-10-21 10:13:00,
2013-10-21 06:28:00,36.1,35.0,30.11,SW,220,0.0,-999.0,94,-99.99,,,0.00,weatherlink.com 1.10,2013-10-21 10:28:00,
2013-10-21 06:43:00,35.6,34.0,30.12,SW,220,0.0,-999.0,94,-99.99,,,0.00,weatherlink.com 1.10,2013-10-21 10:43:00,
2013-10-21 07:03:00,35.5,34.0,30.11,SW,220,0.0,-999.0,94,-99.99,,,0.00,weatherlink.com 1.10,2013-10-21 11:03:00,
2013-10-21 07:13:00,35.3,34.0,30.11,SW,220,0.0,-999.0,94,-99.99,,,0.00,weatherlink.com 1.10,2013-10-21 11:13:00,
2013-10-21 07:28:00,35.2,34.0,30.11,SW,220,0.0,-999.0,94,-99.99,,,0.00,weatherlink.com 1.10,2013-10-21 11:28:00,
2013-10-21 07:43:00,35.0,34.0,30.11,SW,220,0.0,-999.0,94,-99.99,,,0.00,weatherlink.com 1.10,2013-10-21 11:43:00,
2013-10-21 08:03:00,35.0,34.0,30.11,SW,220,0.0,-999.0,94,-99.99,,,0.00,weatherlink.com 1.10,2013-10-21 12:03:00,
2013-10-21 08:13:00,35.0,34.0,30.12,SW,220,0.0,-999.0,94,-99.99,,,0.00,weatherlink.com 1.10,2013-10-21 12:13:00,
2013-10-21 08:28:00,35.6,34.0,30.12,SW,220,0.0,-999.0,95,-99.99,,,0.00,weatherlink.com 1.10,2013-10-21 12:28:00,
2013-10-21 08:43:00,36.5,35.0,30.13,SW,220,0.0,-999.0,95,-99.99,,,0.00,weatherlink.com 1.10,2013-10-21 12:43:00,
2013-10-21 09:03:00,37.6,36.0,30.13,SW,220,0.0,-999.0,95,-99.99,,,0.00,weatherlink.com 1.10,2013-10-21 13:03:00,
2013-10-21 09:13:00,41.2,40.0,30.13,SW,220,0.0,-999.0,96,-99.99,,,0.00,weatherlink.com 1.10,2013-10-21 13:13:00,
2013-10-21 09:28:00,42.8,42.0,30.14,SW,220,0.0,-999.0,96,-99.99,,,0.00,weatherlink.com 1.10,2013-10-21 13:28:00,
2013-10-21 09:43:00,45.8,45.0,30.13,SW,220,0.0,-999.0,96,-99.99,,,0.00,weatherlink.com 1.10,2013-10-21 13:43:00,
2013-10-21 10:04:00,46.9,46.0,30.14,SW,220,0.0,-999.0,96,-99.99,,,0.00,weatherlink.com 1.10,2013-10-21 14:04:00,
2013-10-21 10:14:00,50.7,49.0,30.13,SW,219,0.0,-999.0,95,-99.99,,,0.00,weatherlink.com 1.10,2013-10-21 14:14:00,
2013-10-21 10:29:00,54.5,48.0,30.13,SW,219,0.0,-999.0,78,-99.99,,,0.00,weatherlink.com 1.10,2013-10-21 14:29:00,
2013-10-21 10:44:00,56.2,47.0,30.12,WSW,243,2.0,-999.0,70,-99.99,,,0.00,weatherlink.com 1.10,2013-10-21 14:44:00,
2013-10-21 11:04:00,56.9,47.0,30.12,WSW,239,0.0,-999.0,69,-99.99,,,0.00,weatherlink.com 1.10,2013-10-21 15:04:00,
2013-10-21 11:14:00,59.5,46.0,30.12,West,270,4.0,-999.0,61,-99.99,,,0.00,weatherlink.com 1.10,2013-10-21 15:14:00,
2013-10-21 11:29:00,61.1,46.0,30.11,SSW,211,6.0,-999.0,57,-99.99,,,0.00,weatherlink.com 1.10,2013-10-21 15:29:00,
2013-10-21 11:44:00,62.4,45.0,30.11,SW,234,6.0,-999.0,53,-99.99,,,0.00,weatherlink.com 1.10,2013-10-21 15:44:00,
2013-10-21 12:04:00,62.6,44.0,30.11,WSW,246,5.0,-999.0,50,-99.99,,,0.00,weatherlink.com 1.10,2013-10-21 16:04:00,
2013-10-21 12:14:00,63.7,43.0,30.10,SSW,201,3.0,-999.0,47,-99.99,,,0.00,weatherlink.com 1.10,2013-10-21 16:14:00,
2013-10-21 12:29:00,64.5,43.0,30.10,SW,215,5.0,-999.0,45,-99.99,,,0.00,weatherlink.com 1.10,2013-10-21 16:29:00,
2013-10-21 12:44:00,64.9,42.0,30.09,NW,319,7.0,-999.0,44,-99.99,,,0.00,weatherlink.com 1.10,2013-10-21 16:44:00,
2013-10-21 13:04:00,64.8,42.0,30.09,West,259,11.0,-999.0,44,-99.99,,,0.00,weatherlink.com 1.10,2013-10-21 17:04:00,
2013-10-21 13:14:00,65.4,40.0,30.08,West,267,4.0,-999.0,39,-99.99,,,0.00,weatherlink.com 1.10,2013-10-21 17:14:00,
2013-10-21 13:29:00,65.8,41.0,30.07,WSW,249,3.0,-999.0,40,-99.99,,,0.00,weatherlink.com 1.10,2013-10-21 17:29:00,
2013-10-21 13:44:00,65.9,41.0,30.06,NW,321,6.0,-999.0,40,-99.99,,,0.00,weatherlink.com 1.10,2013-10-21 17:44:00,
2013-10-21 14:04:00,66.1,42.0,30.06,West,277,8.0,-999.0,42,-99.99,,,0.00,weatherlink.com 1.10,2013-10-21 18:04:00,
2013-10-21 14:13:00,66.8,42.0,30.05,West,273,7.0,-999.0,40,-99.99,,,0.00,weatherlink.com 1.10,2013-10-21 18:13:00,
2013-10-21 14:28:00,67.0,43.0,30.04,WSW,252,0.0,-999.0,42,-99.99,,,0.00,weatherlink.com 1.10,2013-10-21 18:28:00,
2013-10-21 14:43:00,67.9,41.0,30.04,SSW,209,6.0,-999.0,37,-99.99,,,0.00,weatherlink.com 1.10,2013-10-21 18:43:00,
2013-10-21 15:04:00,67.5,41.0,30.03,WSW,258,6.0,-999.0,38,-99.99,,,0.00,weatherlink.com 1.10,2013-10-21 19:04:00,
2013-10-21 15:13:00,68.2,39.0,30.02,West,279,6.0,-999.0,35,-99.99,,,0.00,weatherlink.com 1.10,2013-10-21 19:13:00,
2013-10-21 15:28:00,68.2,40.0,30.01,West,269,6.0,-999.0,36,-99.99,,,0.00,weatherlink.com 1.10,2013-10-21 19:28:00,
2013-10-21 15:43:00,68.5,42.0,30.01,SW,226,0.0,-999.0,38,-99.99,,,0.00,weatherlink.com 1.10,2013-10-21 19:43:00,
2013-10-21 16:04:00,68.9,41.0,30.01,WSW,237,3.0,-999.0,36,-99.99,,,0.00,weatherlink.com 1.10,2013-10-21 20:04:00,
2013-10-21 16:14:00,69.2,40.0,30.00,South,191,1.0,-999.0,35,-99.99,,,0.00,weatherlink.com 1.10,2013-10-21 20:14:00,
2013-10-21 16:29:00,69.0,38.0,30.00,WSW,247,8.0,-999.0,32,-99.99,,,0.00,weatherlink.com 1.10,2013-10-21 20:29:00,
2013-10-21 16:44:00,69.6,40.0,30.00,West,273,7.0,-999.0,34,-99.99,,,0.00,weatherlink.com 1.10,2013-10-21 20:44:00,
2013-10-21 17:04:00,69.5,39.0,29.99,WSW,240,5.0,-999.0,33,-99.99,,,0.00,weatherlink.com 1.10,2013-10-21 21:04:00,
2013-10-21 17:14:00,69.2,39.0,29.99,WSW,254,5.0,-999.0,33,-99.99,,,0.00,weatherlink.com 1.10,2013-10-21 21:14:00,
2013-10-21 17:29:00,69.1,40.0,30.00,WSW,258,0.0,-999.0,35,-99.99,,,0.00,weatherlink.com 1.10,2013-10-21 21:29:00,
2013-10-21 17:44:00,67.8,39.0,30.00,WSW,255,2.0,-999.0,35,-99.99,,,0.00,weatherlink.com 1.10,2013-10-21 21:44:00,
2013-10-21 18:04:00,67.3,39.0,30.00,West,267,5.0,-999.0,35,-99.99,,,0.00,weatherlink.com 1.10,2013-10-21 22:04:00,
2013-10-21 18:14:00,66.2,40.0,30.00,West,271,5.0,-999.0,38,-99.99,,,0.00,weatherlink.com 1.10,2013-10-21 22:14:00,
2013-10-21 18:29:00,65.7,42.0,30.00,West,271,0.0,-999.0,42,-99.99,,,0.00,weatherlink.com 1.10,2013-10-21 22:29:00,
2013-10-21 18:44:00,64.3,42.0,29.99,West,271,0.0,-999.0,44,-99.99,,,0.00,weatherlink.com 1.10,2013-10-21 22:44:00,
2013-10-21 19:04:00,63.8,44.0,29.99,West,271,0.0,-999.0,48,-99.99,,,0.00,weatherlink.com 1.10,2013-10-21 23:04:00,
2013-10-21 19:14:00,61.7,44.0,29.99,West,271,0.0,-999.0,52,-99.99,,,0.00,weatherlink.com 1.10,2013-10-21 23:14:00,
2013-10-21 19:29:00,60.4,44.0,30.00,West,271,0.0,-999.0,55,-99.99,,,0.00,weatherlink.com 1.10,2013-10-21 23:29:00,
2013-10-21 19:44:00,59.3,45.0,30.00,West,271,0.0,-999.0,60,-99.99,,,0.00,weatherlink.com 1.10,2013-10-21 23:44:00,
2013-10-21 20:04:00,58.7,45.0,30.00,West,271,0.0,-999.0,61,-99.99,,,0.00,weatherlink.com 1.10,2013-10-22 00:04:00,
2013-10-21 20:14:00,56.4,45.0,30.00,West,271,0.0,-999.0,66,-99.99,,,0.00,weatherlink.com 1.10,2013-10-22 00:14:00,
2013-10-21 20:29:00,55.1,45.0,30.00,West,271,0.0,-999.0,70,-99.99,,,0.00,weatherlink.com 1.10,2013-10-22 00:29:00,
2013-10-21 20:44:00,53.6,46.0,29.99,West,271,0.0,-999.0,74,-99.99,,,0.00,weatherlink.com 1.10,2013-10-22 00:44:00,
2013-10-21 21:04:00,53.1,46.0,30.00,West,271,0.0,-999.0,76,-99.99,,,0.00,weatherlink.com 1.10,2013-10-22 01:04:00,
2013-10-21 21:14:00,51.7,45.0,29.99,West,271,0.0,-999.0,79,-99.99,,,0.00,weatherlink.com 1.10,2013-10-22 01:14:00,
2013-10-21 21:29:00,50.9,45.0,30.00,West,271,0.0,-999.0,79,-99.99,,,0.00,weatherlink.com 1.10,2013-10-22 01:29:00,
2013-10-21 21:44:00,50.1,45.0,30.00,West,271,0.0,-999.0,81,-99.99,,,0.00,weatherlink.com 1.10,2013-10-22 01:44:00,
2013-10-21 22:04:00,49.9,45.0,30.00,West,271,0.0,-999.0,82,-99.99,,,0.00,weatherlink.com 1.10,2013-10-22 02:04:00,
2013-10-21 22:14:00,50.2,45.0,30.00,West,271,0.0,-999.0,82,-99.99,,,0.00,weatherlink.com 1.10,2013-10-22 02:14:00,
2013-10-21 22:29:00,50.4,45.0,30.00,West,271,0.0,-999.0,82,-99.99,,,0.00,weatherlink.com 1.10,2013-10-22 02:29:00,
2013-10-21 22:44:00,50.5,46.0,30.00,West,271,0.0,-999.0,83,-99.99,,,0.00,weatherlink.com 1.10,2013-10-22 02:44:00,
2013-10-21 23:04:00,50.6,46.0,30.00,West,271,0.0,-999.0,84,-99.99,,,0.00,weatherlink.com 1.10,2013-10-22 03:04:00,
2013-10-21 23:14:00,52.2,46.0,29.99,West,271,0.0,-999.0,80,-99.99,,,0.00,weatherlink.com 1.10,2013-10-22 03:14:00,
2013-10-21 23:29:00,53.5,47.0,29.99,West,271,0.0,-999.0,78,-99.99,,,0.00,weatherlink.com 1.10,2013-10-22 03:29:00,
2013-10-21 23:44:00,52.1,46.0,29.99,West,271,0.0,-999.0,79,-99.99,,,0.00,weatherlink.com 1.10,2013-10-22 03:44:00,